User: anonymous   Login
Location: Unspecified
(0.0000°N, 0.0000°E)
Time: 21:47:15
(UTC+02:00)
Language:

Meteor 1-10 Rocket - Orbit

View from above orbital plane
View from above orbital plane
View from above satellite
View from above satellite

Ground track
Ground track

The orbit data is extracted from the following two-line orbital elements,

1 05732U 71120B   15188.19377174  .00000180  00000-0  10144-3 0  9992
2 05732 081.2524 089.9254 0050687 241.9227 117.6812 14.05888773239024
Epoch (UTC): 07 July 2015 04:39:01
Eccentricity: 0.0050687
inclination: 81.2524°
perigee height: 837 km
apogee height: 910 km
right ascension of ascending node: 89.9254°
argument of perigee: 241.9227°
revolutions per day: 14.05888773
mean anomaly at epoch: 117.6812°
orbit number at epoch: 23902

The dashed part of the orbit path shows where the satellite is in the earth's shadow,  

DLR